Terminal Aerodrome Forecast
Issued by NWS

Home | Current Version | Previous Version | Text Only | Print | Product List | Glossary On
Versions: 1 2 3 4 5 6 7 8 9 10 11 12 13 14 15 16 17 18 19 20 21 22 23 24 25 26 27 28 29 30 31 32 33 34 35 36 37 38 39 40 41
000
FTUS44 KHGX 172333
TAFUTS
TAF
KUTS 172333Z 1800/1824 16006KT P6SM VCSH FEW040 BKN250
     FM180200 14006KT P6SM FEW040 BKN250
     FM180900 VRB04KT P6SM VCTS SCT007 SCT015CB BKN250
      TEMPO 1809/1813 VRB15KT 2SM +TSRA SCT007 BKN015CB
     FM181300 12006KT P6SM VCTS BKN025CB BKN250
     FM182100 12005KT P6SM VCSH SCT030 BKN250=

USA.gov is the U.S. government's official web portal to all federal, state and local government web resources and services.